CZ-3B R/B (50006 NORAD) Tracking and Keplerian Element Data

This shows tracking and keplerian element data for the satellite.

Feedback or suggestion? Click here.




ElementValue
Catalog50006
NameCZ-3B R/B
Epoch Orbit70
Epoch Day11.39747497
Epoch Year2022
RAAN310.6703
Inclination26.9414
Eccentricity0.7196254
Argument of Perigee198.5835
Mean Anonmoly107.4167
Mean Motion2.4515545
Decay Rate0.0015268
L11 50006U 21124B 22011.39747497 .00152680 -24573-6 51687-3 0 9997
L22 50006 26.9414 310.6703 7196254 198.5835 107.4167 2.45155450 706



Live tracking and technical data element details for CZ-3B R/B (NORAD 50006). CZ-3B R/B can be tracked NOW for your location showing map with azimuth and elevation plus other details from your city location.







IsCatalogInMostPopularTable: catalog: 50006, numindb: 34
Update: records affected: 1



GetName: 50006 CZ-3B R/B

Hit Count: updated at: Sun, 04 Jun 2023 23:42:20 GMT